Location: Cherryland
(37.6794°N, 122.1033°W)
Time: 14:41:47
(UTC+00:00)

Cosmos 1825 Rocket - Pass Details

Date: 14 December 2025
Orbit: 597 x 624 km, 82.5° (Epoch: 17 January)

Event Time Altitude Azimuth Distance (km) Brightness Sun altitude
Rises 14:24:19 0° 187° (S) 2,889 7.2 -10.0°
Reaches altitude 10° 14:26:32 10° 188° (S) 1,986 6.3 -9.6°
Maximum altitude 14:30:57 84° 274° (W) 630 3.5 -8.8°
Drops below altitude 10° 14:35:23 10° 6° (N) 1,991 6.0 -8.0°
Sets 14:37:36 0° 7° (N) 2,897 6.8 -7.6°
